Location: Herksen
(52.4316°N, 6.1319°E)
Time: 08:00:44
(UTC+00:00)

Daily predictions for brighter satellites

Satellite Brightness Start Highest point End
(mag) Time Altitude Azimuth Time Altitude Azimuth Time Altitude Azimuth
NOSS 3-3 (A) 3.8 19:59:30 10° SSW 20:04:38 61° SE 20:10:50 10° NE
Cosmos 1544 Rocket 4.2 20:01:14 10° SSE 20:05:11 35° E 20:09:07 10° NNE
Cosmos 44 Rocket 4.4 20:00:33 10° WSW 20:05:35 55° NW 20:10:43 10° NE
Cosmos 1437 Rocket 3.6 20:04:34 10° SSE 20:07:37 27° E 20:10:41 10° NE
Cosmos 2360 Rocket 2.8 20:02:31 10° NNW 20:08:01 47° NE 20:13:29 10° SE
Helios 1A Rocket 2.3 20:05:32 10° NNE 20:08:42 80° WNW 20:11:50 10° SSW
Cosmos 1452 Rocket 4.3 20:06:11 10° SW 20:11:20 58° WNW 20:16:32 10° NNE
EP 1 4.4 20:10:22 10° NW 20:12:57 65° NE 20:15:38 10° SE
CZ-4B R/B 3.8 20:08:26 10° S 20:14:01 62° WSW 20:19:36 10° NNW
Cosmos 2233 Rocket 4.0 20:09:45 10° S 20:15:56 83° E 20:22:07 10° NNE
Cosmos 1486 Rocket 4.4 20:13:28 10° NNW 20:18:39 55° ENE 20:23:49 10° SE
Cosmos 1302 Rocket 4.3 20:13:29 10° SSW 20:18:40 76° WNW 20:23:53 10° NNE
Okean-O 2.6 20:15:59 10° SSE 20:20:21 89° WSW 20:24:47 10° NNW
Cosmos 2219 Rocket 3.1 20:15:21 10° NNW 20:20:41 40° NE 20:26:00 10° ESE
Cosmos 1758 Rocket 3.6 20:16:17 10° N 20:20:42 77° ENE 20:25:08 10° SSE
Cosmos 909 Rocket 4.0 20:15:41 10° SSW 20:21:55 71° SE 20:28:29 10° NE
CZ-2C R/B 3.7 20:21:15 10° ESE 20:23:22 20° ENE 20:25:29 10° NNE
DNEPR-1 R/B 4.3 20:23:12 10° NW 20:28:33 89° SW 20:34:57 11° SE
Meteor 1-25 Rocket 4.3 20:24:25 10° N 20:30:05 65° ENE 20:35:37 10° SSE
USA 245 4.3 20:26:08 10° SSE 20:31:58 72° ENE 20:37:22 10° N
IRS-1C Rocket 4.4 20:27:12 10° SE 20:32:20 56° ENE 20:37:30 10° N
Cosmos 1825 Rocket 4.5 20:29:17 10° N 20:33:16 34° ENE 20:36:52 12° SE
Cosmos 1805 3.5 20:30:50 10° N 20:33:57 39° ENE 20:36:34 13° SE
NOSS 3-3 (C) 3.7 20:31:50 10° SW 20:37:09 79° SE 20:43:38 10° NE
Cosmos 220 Rocket 4.3 20:33:34 10° S 20:37:22 41° ESE 20:41:15 10° NE
Cosmos 2322 Rocket 2.3 20:34:57 10° NNW 20:40:39 77° ENE 20:45:49 13° SE
Cosmos 1602 Rocket 3.5 20:40:21 10° N 20:44:41 77° ENE 20:48:44 12° SSE
USA 306 2.0 20:42:39 10° W 20:45:34 55° N 20:47:27 10° ENE
Cosmos 2082 Rocket 3.0 20:41:20 10° SW 20:46:59 59° NW 20:52:38 10° NNE
NOSS 3-4 (A) 3.9 20:41:33 10° NW 20:48:07 81° SW 20:55:06 13° SE
NOSS 3-4 (C) 3.9 20:42:11 10° NW 20:48:46 81° SW 20:55:45 13° SE
YAOGAN 11 4.2 20:47:03 10° NNE 20:51:30 83° WNW 20:55:58 10° SSW
CZ-4B R/B 2.4 20:49:58 13° SSE 20:52:55 86° WSW 20:56:27 10° NNW
Cosmos 2151 3.3 20:50:51 10° NNW 20:54:55 60° W 20:58:56 10° S
Cosmos 1076 Rocket 4.1 20:53:17 10° N 20:57:21 41° ENE 21:00:20 16° SE
Cosmos 2098 Rocket 3.2 20:53:24 11° S 20:57:52 54° E 21:01:49 10° NNE
Cosmos 44 4.0 20:52:38 10° NW 20:58:00 56° NE 21:02:45 12° ESE
Cosmos 2237 Rocket 4.3 20:54:09 10° NNW 20:58:19 20° NNE 21:02:26 10° ENE
ATLAS 2AS CENTAUR R/B 4.4 20:52:50 10° WNW 20:59:02 34° NNW 21:05:10 10° NE
CZ-4C R/B 3.7 20:55:49 10° W 21:00:17 37° NNW 21:06:02 10° NE
Ariane Rocket 3.0 20:59:02 13° SSE 21:03:31 89° WSW 21:08:38 10° NNW
Cosmos 2278 4.2 21:02:11 10° NW 21:07:45 55° WSW 21:12:37 14° S
SL-16 R/B 3.1 21:06:23 10° NW 21:11:42 42° WSW 21:16:43 11° S
COSMOS 2428 3.8 21:07:17 10° NNW 21:12:33 36° NE 21:17:37 11° ESE
Meteor 1-5 Rocket 4.3 21:06:49 10° NNW 21:12:36 86° WSW 21:17:38 15° S
SPOT 3 Rocket 3.9 21:09:24 11° S 21:14:13 60° WSW 21:19:20 10° NNW
Cosmos 1763 Rocket 3.9 21:10:53 14° S 21:15:10 43° ESE 21:20:09 10° NE
USA 186 4.0 21:13:56 10° SW 21:15:49 17° W 21:17:43 10° NW
USA 290 2.2 21:18:07 19° S 21:20:07 54° ESE 21:23:12 10° NE
Cosmos 1606 Rocket 3.5 21:17:15 15° S 21:20:45 70° E 21:25:02 10° NNE
Cosmos 990 Rocket 4.0 21:17:13 10° NNW 21:22:25 83° ENE 21:26:04 20° SSE
Cosmos 1933 4.2 21:20:58 10° SSW 21:24:38 46° WNW 21:28:21 10° N
Cosmos 1464 Rocket 3.9 21:18:41 10° S 21:24:46 82° E 21:31:00 10° NNE
ISS -3.9 21:22:40 10° W 21:26:00 72° S 21:28:15 19° ESE
Helios 1B rocket 3.6 21:24:22 16° ESE 21:26:13 25° ENE 21:29:09 10° N
Cosmos 1461 3.3 21:23:07 10° WSW 21:26:47 56° NW 21:30:24 10° NE
CZ-4B R/B 3.9 21:23:15 14° S 21:27:15 54° W 21:32:02 10° NNW
Okean 1 3.0 21:25:54 21° S 21:28:08 68° E 21:31:44 10° NNE
BREEZE-M DEB (TANK) 1.3 21:25:48 10° WSW 21:28:09 40° S 21:28:12 40° S
Cosmos 1726 Rocket 3.4 21:25:49 20° S 21:28:25 60° E 21:32:26 10° NNE
COSMOS 2406 4.0 21:25:29 10° SW 21:31:08 56° NW 21:36:47 10° NNE
Terra 4.5 21:30:03 10° WSW 21:31:56 12° W 21:33:49 10° WNW
Okean O Rocket 3.8 21:31:42 10° SW 21:34:46 19° W 21:37:50 10° NW
Cosmos 1536 3.3 21:31:45 10° N 21:35:16 41° ENE 21:36:59 25° SE
GRACE-FO 1 4.4 21:34:58 24° S 21:36:59 87° W 21:40:30 10° N
GRACE-FO 2 4.4 21:35:26 24° S 21:37:27 86° W 21:40:58 10° N
Cosmos-2242 3.3 21:37:47 25° SSE 21:39:47 45° E 21:43:44 10° NNE
Cosmos 1092 Rocket 4.1 21:34:56 10° N 21:41:08 69° ENE 21:45:21 21° SSE
Cosmos 2333 Rocket 3.6 21:37:08 10° NW 21:41:58 29° WSW 21:46:30 11° SSW
Okean 1-7 Rocket 4.5 21:42:43 10° NNW 21:46:59 44° W 21:50:19 16° SSW
Cosmos 2297 Rocket 4.1 21:46:14 12° ESE 21:47:36 13° E 21:50:07 10° ENE
Cosmos 1833 4.1 21:44:14 10° SSW 21:49:51 72° ESE 21:55:29 10° NE
Cosmos 2360 Rocket 3.1 21:46:41 10° NW 21:51:56 39° WSW 21:55:44 17° SSW
CZ-2C R/B 3.8 21:52:45 17° SW 21:54:01 23° W 21:56:19 10° NW
Cosmos 1766 2.6 21:52:25 10° N 21:55:39 90° NNE 21:56:45 39° S
Cosmos 2322 3.9 21:50:53 10° NNW 21:56:36 69° NE 22:00:18 22° SE
Cosmos 1842 3.8 21:56:49 28° ESE 21:57:13 29° E 22:00:01 10° NNE
Cosmos 1975 3.8 21:54:30 10° N 21:57:48 30° ENE 21:59:14 23° ESE
Cosmos 372 Rocket 3.9 21:57:25 10° NNW 22:02:35 82° ENE 22:05:24 27° SSE
Cosmos 2034 Rocket 4.1 21:58:36 15° SSW 22:03:58 80° W 22:10:21 10° N
Cosmos 2221 3.7 22:03:18 23° ESE 22:04:35 27° E 22:08:09 10° NNE
Cosmos 2219 Rocket 2.8 21:59:19 10° NW 22:04:45 48° WSW 22:08:05 22° S
Cosmos 1271 Rocket 3.2 22:06:21 31° ESE 22:06:54 33° E 22:09:59 10° NNE
Cosmos 540 Rocket 3.5 22:07:44 13° SSW 22:12:19 80° WNW 22:17:30 10° NNE
USA 306 3.5 22:10:36 10° WNW 22:11:19 16° WNW 22:11:19 16° WNW
Helios 1A 2.7 22:12:26 10° NNE 22:16:23 82° ESE 22:18:07 32° S
Cosmos 1953 Rocket 4.4 22:13:42 10° NNW 22:17:49 42° W 22:20:10 22° SSW
RESURS DK-1 2.2 22:15:13 10° NNW 22:19:13 88° ENE 22:20:45 36° SSE
Cosmos 2279 Rocket 4.2 22:16:39 26° SSE 22:20:15 61° E 22:26:25 10° NNE
Aureole 1 Rocket 4.2 22:14:53 10° NNW 22:20:34 62° WSW 22:24:34 25° S
Cosmos 2322 Rocket 3.9 22:19:50 10° NW 22:24:06 22° WSW 22:27:37 13° SW
Cosmos 1707 2.6 22:23:33 35° SW 22:24:19 47° WNW 22:27:05 10° N
Cosmos 1634 Rocket 3.9 22:22:33 23° S 22:26:36 89° E 22:32:51 10° N
Cosmos 1937 Rocket 3.5 22:22:19 10° NNW 22:27:29 75° ENE 22:30:09 29° SE
TSX-5 3.7 22:26:21 10° NW 22:29:24 47° WSW 22:29:55 42° SSW
SL-16 R/B 4.1 22:26:59 10° NNW 22:31:39 25° NE 22:36:17 10° E
Geosat 3.9 22:27:12 10° NNE 22:32:15 83° ESE 22:35:38 21° SSW
CZ-2C R/B 3.9 22:28:11 10° NNE 22:32:35 53° E 22:34:15 34° SSE
Cosmos 2058 Rocket 3.3 22:30:59 25° SSW 22:33:22 64° WNW 22:37:41 10° N
Cosmos 468 Rocket 4.0 22:30:13 22° SSW 22:33:44 90° SE 22:39:01 10° NNE
GP-B 4.2 22:30:39 10° NNE 22:34:36 32° E 22:36:11 25° ESE
Meteor 2-9 Rocket 4.1 22:33:12 10° NNW 22:38:38 90° E 22:41:25 31° SSE
Cosmos 44 4.3 22:34:04 10° NW 22:39:00 37° WSW 22:41:01 27° SSW
Lacrosse 4 Rocket 3.3 22:42:44 15° ESE 22:42:44 15° ESE 22:44:53 10° ENE
CZ-2C R/B 3.7 22:39:09 17° ESE 22:42:33 35° ENE 22:47:14 10° N
Cosmos 2237 Rocket 2.5 22:37:51 10° NNW 22:43:32 63° NE 22:47:08 22° SE
Cosmos 2266 Rocket 4.0 22:41:06 10° N 22:47:09 69° ENE 22:50:26 28° SSE
USA 234 4.0 22:42:00 10° ENE 22:47:44 31° SE 22:49:36 27° SSE
Cosmos 1980 3.8 22:42:08 10° NNW 22:47:48 71° ENE 22:51:12 25° SE
SeaSat 1 4.1 22:43:50 10° E 22:48:01 29° NE 22:52:13 10° NNW
Cosmos 1470 2.7 22:45:28 10° NNW 22:48:43 53° W 22:49:19 45° SW
CZ-4C R/B 4.4 22:45:10 10° NW 22:50:02 30° N 22:56:08 10° ENE
ATLAS 2AS CENTAUR R/B 4.2 22:45:24 10° NW 22:51:38 36° NNE 22:57:50 10° E
ARIANE 5 R/B 2.6 22:52:41 37° S 22:54:23 76° WSW 22:58:53 10° NNW
ALOS 2 2.5 22:54:46 38° S 22:56:25 85° WSW 23:00:51 10° NNW
COSMOS 2428 3.0 22:51:29 10° NW 22:57:03 56° WSW 22:59:34 31° S
Cosmos 2227 Rocket 3.8 22:55:49 17° ESE 22:57:30 20° E 23:01:25 10° NE
Helios 1B rocket 3.2 22:58:18 27° SW 22:59:07 30° W 23:02:16 10° NNW
Cosmos 1898 Rocket 4.0 22:57:31 10° NW 23:02:28 47° WSW 23:04:34 31° SSW
ISS -2.0 22:59:33 10° W 23:01:10 21° WSW 23:01:10 21° WSW
BlueWalker 3 4.2 23:05:21 11° E 23:05:21 11° E 23:05:35 10° E
Cosmos 2263 Rocket 4.1 23:03:56 13° ESE 23:05:42 14° E 23:08:34 10° ENE
CZ-2C R/B 3.9 23:01:18 10° NNE 23:06:51 46° E 23:09:26 29° SSE
Meteor 1-11 Rocket 3.7 23:01:49 10° NNW 23:07:31 82° W 23:10:10 33° S
Cosmos 1766 Rocket 4.0 23:04:15 10° N 23:08:28 51° ENE 23:10:08 32° SE
SAR-Lupe-2 3.3 23:10:57 61° SSW 23:11:25 74° WSW 23:14:45 10° NNW
Meteor 1-10 Rocket 4.3 23:11:29 31° S 23:14:30 83° E 23:20:29 10° NNE
Cosmos 1238 Rocket 3.6 23:14:04 34° SE 23:15:12 43° E 23:19:23 10° NNE
PSLV R/B 3.5 23:11:26 10° NNE 23:15:45 79° ESE 23:17:16 40° S
Cosmos 1655 Rocket 4.2 23:14:25 10° N 23:20:39 64° ENE 23:24:14 26° SSE
Alouette 2 Rocket 3.7 23:22:38 10° N 23:26:22 65° ENE 23:28:18 33° SE
NOSS 0 Rocket 4.4 23:22:24 10° NW 23:28:14 45° WSW 23:30:48 30° SSW
Meteor 1-27 Rocket 3.8 23:25:49 32° S 23:28:35 73° E 23:34:18 10° NNE
Meteor 2-10 Rocket 4.1 23:23:30 10° N 23:28:57 58° ENE 23:32:13 25° SE
Cosmos 841 Rocket 3.8 23:27:23 24° SW 23:30:30 65° WNW 23:35:45 10° NNE
Cosmos 2297 Rocket 2.2 23:27:59 33° S 23:30:34 69° ESE 23:36:12 10° NE
Cosmos 1975 4.1 23:29:36 10° NNW 23:32:40 25° W 23:33:29 23° WSW
CZ-4C R/B 4.4 23:38:22 10° NE 23:41:15 25° E 23:41:47 24° ESE
Cosmos 2221 3.6 23:39:35 23° WSW 23:41:29 35° WNW 23:45:23 10° N
Cosmos 158 Rocket 4.4 23:39:40 33° SSE 23:41:44 51° ESE 23:46:54 10° NNE
Cosmos 1812 Rocket 4.2 23:39:58 29° SW 23:41:51 48° WNW 23:46:10 10° N
ACS3 Solar Sail 2.8 23:37:29 10° NNE 23:42:55 35° E 23:46:10 21° SE
MetOp-A 4.0 23:42:38 36° SSW 23:44:26 61° WSW 23:49:03 10° NNW
Landsat 5 4.0 23:43:27 10° NNE 23:47:23 44° E 23:48:28 35° SE
